Вернуться в каталог

FENGYUN 1C DEB

АктивенPO
NORAD 30445·DEBRIS·🇨🇳 China

Запущен May 10, 1999 с Taiyuan Satellite Launch Center

Loading…

Ближайшие Пролёты (ближайшие 24 часа)

TLE

СвежийSource: Space-Track

Эпоха: Sep 14, 2026, 08:54 UTC

1 30445U 99025AFG 26257.37142596  .00001051  00000-0  26800-3 0  9996
2 30445  98.8672 227.3542 0102202 268.2476  90.7008 14.49887346 31759

Отслеживайте FENGYUN 1C DEB в реальном времени с AllMySat

Download on the App Store